User: anonymous   Login
Location: Unspecified
(0.0000°N, 0.0000°E)
Time: 05:48:40
(UTC+00:00)
Language:

STARLINK-32567 - Orbit

View from above orbital plane
View from above orbital plane
View from above satellite
View from above satellite

Ground track
Ground track

The orbit is defined by the following mean orbital elements,

1 61930U          26145.60151169 +.00000000 +00000-0 +48775-3 0 00003
2 61930  43.0021 204.0022 0001217 271.6025  88.4687 15.27586427    03
Epoch (UTC): 25 May 2026 14:26:10
Eccentricity: 0.0001217
inclination: 43.0021°
perigee height: 482 km
apogee height: 484 km
right ascension of ascending node: 204.0022°
argument of perigee: 271.6025°
revolutions per day: 15.27586427
mean anomaly at epoch: 88.4687°

The dashed part of the orbit path shows where the satellite is in the earth's shadow,  

DLR